UTA112 USSS-USRR

Flight info

Callsign UTA112
Flight time N/A
Altitude 35000
Route DOSUM6H DOSUM L992 NAMOL T376 UTORA A925 HMN L870 STELA KOVER1T
Aircraft B738/M-SDE2E3FGHIRWXY/LB1

Departure

Time 2026-04-30 13:38
Airport Koltsovo Airport (USSS)

Arrival

Time N/A
Airport Surgut International Airport (USRR)
Time Latitude Longitude Altitude Speed Heading
2026-04-30 13:35 56.74200 60.82165 774 ft 9 kts 184°
2026-04-30 13:36 56.74086 60.82161 774 ft 8 kts 162°
2026-04-30 13:36 56.74059 60.82254 774 ft 11 kts 96°
2026-04-30 13:36 56.74053 60.82552 774 ft 12 kts 75°
2026-04-30 13:37 56.74078 60.82686 774 ft 12 kts 78°
2026-04-30 13:37 56.74042 60.82636 774 ft 9 kts 281°
2026-04-30 13:38 56.74077 60.81827 774 ft 99 kts 274°
2026-04-30 13:38 56.74142 60.80103 808 ft 168 kts 273°
2026-04-30 13:38 56.74297 60.75507 2569 ft 178 kts 274°
2026-04-30 13:39 56.74539 60.70466 3323 ft 223 kts 274°
2026-04-30 13:39 56.74787 60.64516 4212 ft 242 kts 272°
2026-04-30 13:40 56.74535 60.61482 4632 ft 253 kts 243°
2026-04-30 13:40 56.73350 60.59119 5216 ft 261 kts 211°
2026-04-30 13:40 56.71626 60.58109 6012 ft 264 kts 183°
2026-04-30 13:40 56.69833 60.58737 6818 ft 269 kts 154°
2026-04-30 13:41 56.68410 60.60941 7621 ft 274 kts 124°
2026-04-30 13:41 56.67748 60.64152 8412 ft 281 kts 96°
2026-04-30 13:41 56.68029 60.67559 9173 ft 288 kts 65°
2026-04-30 13:41 56.69295 60.70521 10021 ft 292 kts 44°
2026-04-30 13:42 56.70786 60.73126 10653 ft 304 kts 44°
2026-04-30 13:42 56.72302 60.75889 11382 ft 311 kts 45°
2026-04-30 13:42 56.75456 60.81612 12630 ft 336 kts 35°
2026-04-30 13:43 56.77498 60.83991 12868 ft 359 kts 28°
2026-04-30 13:43 56.79662 60.86248 13374 ft 372 kts 28°
2026-04-30 13:43 56.81938 60.88595 14115 ft 378 kts 28°
2026-04-30 13:43 56.84240 60.90994 14896 ft 384 kts 28°
2026-04-30 13:44 56.86578 60.93465 15630 ft 391 kts 29°
2026-04-30 13:44 56.88945 60.96001 16377 ft 397 kts 29°
2026-04-30 13:44 56.91343 60.98595 17062 ft 404 kts 30°
2026-04-30 13:44 56.93778 61.01243 17779 ft 410 kts 30°
2026-04-30 13:45 56.98758 61.06685 19065 ft 424 kts 30°
2026-04-30 13:45 57.01305 61.09472 19730 ft 429 kts 30°
2026-04-30 13:45 57.03881 61.12299 20356 ft 435 kts 30°
2026-04-30 13:46 57.06497 61.15175 20972 ft 441 kts 29°
2026-04-30 13:46 57.09146 61.18093 21544 ft 447 kts 29°
2026-04-30 13:46 57.11829 61.21051 22105 ft 453 kts 29°
2026-04-30 13:46 57.14532 61.24038 22670 ft 457 kts 29°
2026-04-30 13:47 57.17246 61.27041 23215 ft 462 kts 29°
2026-04-30 13:47 57.19927 61.30013 23713 ft 468 kts 28°
2026-04-30 13:47 57.22729 61.33124 24184 ft 474 kts 28°
2026-04-30 13:47 57.25568 61.36280 24652 ft 480 kts 28°
2026-04-30 13:48 57.28424 61.39464 25201 ft 482 kts 28°
2026-04-30 13:48 57.31248 61.42634 25690 ft 486 kts 28°
2026-04-30 13:48 57.34125 61.45896 26146 ft 491 kts 29°
2026-04-30 13:48 57.37009 61.49185 26602 ft 495 kts 29°
2026-04-30 13:49 57.39921 61.52514 27020 ft 499 kts 29°
2026-04-30 13:49 57.42871 61.55890 27456 ft 502 kts 28°
2026-04-30 13:49 57.45805 61.59249 27883 ft 506 kts 28°
2026-04-30 13:49 57.48738 61.62608 28254 ft 510 kts 28°
2026-04-30 13:50 57.51730 61.66028 28611 ft 514 kts 28°
2026-04-30 13:50 57.57768 61.72902 29359 ft 520 kts 28°
2026-04-30 13:50 57.60810 61.76379 29709 ft 523 kts 28°
2026-04-30 13:51 57.63813 61.80044 30048 ft 529 kts 34°
2026-04-30 13:51 57.66578 61.84437 30320 ft 535 kts 42°
2026-04-30 13:51 57.69199 61.89194 30633 ft 538 kts 44°
2026-04-30 13:51 57.71827 61.94126 30925 ft 542 kts 45°
2026-04-30 13:52 57.72708 61.95793 31039 ft 542 kts 45°
2026-04-30 13:53 57.84514 62.17885 32688 ft 545 kts 43°
2026-04-30 13:53 57.87218 62.22883 33062 ft 545 kts 43°
2026-04-30 13:53 57.89913 62.27871 33466 ft 544 kts 43°
2026-04-30 13:53 57.92610 62.32872 33829 ft 544 kts 43°
2026-04-30 13:54 57.95303 62.37883 34160 ft 545 kts 44°
2026-04-30 13:54 57.97991 62.42898 34590 ft 542 kts 44°
2026-04-30 13:54 58.00665 62.47902 35086 ft 537 kts 44°
2026-04-30 13:54 58.03318 62.52878 35123 ft 539 kts 43°
2026-04-30 13:55 58.08604 62.62823 35133 ft 534 kts 43°
2026-04-30 13:55 58.13893 62.72820 35147 ft 544 kts 43°
2026-04-30 13:56 58.19243 62.82974 35146 ft 556 kts 43°
2026-04-30 13:56 58.24735 62.93452 35129 ft 564 kts 44°
2026-04-30 13:57 58.27494 62.98734 35126 ft 564 kts 44°